DELTA 1 DEB, 5975

Orbit data source: Space-Track

DELTA 1 DEB, 5975 is space debris in HEO originally from a launch on Fri, 20 Mar 1970 UTC launched from the Air Force Eastern Test Range (AFETR). Debris objects in space refer to the collection of defunct objects orbiting the Earth. Examples of debris include non-operational satellites, rocket bodies, and fragments generated from explosions, collisions, or faulty payload assembly.

Loading next visibility...
Identifier
5975, 1970-021C
Orbit
HEO
Country
Flag of USUS
Related business
Manufacturer
Unknown
Mission
Spacecraft
Bus & Motor
Unknown
Mass
Unknown
Launch date (UTC)
1970-03-20 (56 years ago)
Launch vehicle
Unknown
Launch site
Air Force Eastern Test Range (AFETR)
Object type
Payload
Rocket body
Debris
Shape & HBR
Unknown
Radar Cross Section
Large (>1 m²)

Expand to show TLE details & history
Last TLE update: 1 day ago

TLE from 1 day ago
0 DELTA 1 DEB
1 05975U 70021C   25260.41612309  .00003888  00000-0  20520-2 0  9995
2 05975  25.6976  30.2569 6518245 107.0926 329.9081  3.25880145364005
Epoch: 2025-09-17T09:59Z
TLE epoch observation values (Epoch: 2025-09-17T09:59:13.034Z)
Latitude
0.00016°
Longitude
-116.14951°
Altitude
7,289.009 km
Speed
6.131 km/s
True Right ascension
02h 00m 59s
True Declination
0° 00' 01"
Sunlit
Object was in daylight at epoch
Visualization orbit readout
Latitude
Unknown
Longitude
Unknown
Altitude
Unknown
Speed
Unknown
Apparent Right ascension
Unknown
Apparent Declination
Unknown
Sunlit
N/A
Visualization observer readout
Local Sidereal Time
11:34:24
Azimuth
Unknown
Elevation
Unknown
Doppler factor
Unknown
Orbital elements
Apogee altitude
25,372.029 km
Perigee altitude
314.239 km
Semi-major axis
19,221.271 km
Eccentricity
0.65182
Inclination
25.6976°
RAAN
30.2569°
Arg. of periapsis
107.0926°
True anomaly
253.12213°
Mean anomaly
329.9081°
Eccentric anomaly
296.47909°
Mean motion
0.81446 °/min
Orbital period
442.01 mins
BSTAR
0.002052
Loading maneuver chart data...
Computing Atmospheric mass density...
Loading historical data...
Loading historical data...
Loading historical data...
Loading historical data...
Loading historical data...
Loading historical data...
Loading historical data...
Other satellites on launch #21 in the year 1970 (1970-03-20 UTC)

Documentation

Showing up to 5 results
|